This demonstration page uses our WeatherBlox Daily Observations layout. Learn more.

Left ArrowRight Arrow

Hourly Observations for April 16, 2017

Temp ( °F °C ) Dew Point ( °F °C ) Humidity (%) Winds ( mph kmh ) Pressure ( in mb ) Visibility ( mi km ) Precip ( " mm )
12:53 am 00:53 Cloudy 34 1.1 29 -1.7 82 82 W 7 11 30.11 1020 10 16 0.00 0.00
1:53 am 01:53 Mostly Cloudy 31 -0.6 28 -2.2 89 89 WNW 7 11 30.11 1020 10 16 0.00 0.00
2:53 am 02:53 Mostly Clear 30 -1.1 27 -2.8 88 88 SW 10 17 30.13 1020 10 16 0.00 0.00
3:53 am 03:53 Mostly Cloudy 31 -0.6 27 -2.8 85 85 WSW 12 19 30.14 1021 10 16 0.00 0.00
4:53 am 04:53 Cloudy 31 -0.6 27 -2.8 85 85 WSW 13 20 30.16 1022 10 16 0.00 0.00
5:53 am 05:53 Mostly Cloudy 30 -1.1 26 -3.3 85 85 WSW 12 19 30.18 1022 10 16 0.00 0.00
6:53 am 06:53 Mostly Cloudy 30 -1.1 25 -3.9 82 82 WSW 12 19 30.20 1023 10 16 0.00 0.00
7:04 am 07:04 Cloudy 30 -1 27 -3 86 86 WSW 12 19 30.27 1025 10 16 0.00 0.00
7:53 am 07:53 Cloudy 33 0.6 27 -2.8 78 78 WSW 13 20 30.21 1023 10 16 0.00 0.00
8:53 am 08:53 Cloudy 35 1.7 28 -2.2 76 76 WSW 12 19 30.21 1023 10 16 0.00 0.00
9:53 am 09:53 Cloudy 36 2.2 29 -1.7 76 76 W 13 20 30.23 1024 10 16 0.00 0.00
10:53 am 10:53 Cloudy 36 2.2 26 -3.3 67 67 NNW 14 22 30.25 1025 10 16 0.00 0.00
11:53 am 11:53 Partly Cloudy 39 3.9 26 -3.3 60 60 WNW 15 24 30.25 1025 10 16 0.00 0.00
12:53 pm 12:53 Sunny 41 5 25 -3.9 53 53 NW 16 26 30.24 1024 10 16 0.00 0.00
1:53 pm 13:53 Sunny 44 6.7 23 -5 43 43 NW 17 28 30.24 1024 10 16 0.00 0.00
2:53 pm 14:53 Sunny 47 8.3 22 -5.6 37 37 WNW 15 24 30.24 1024 10 16 0.00 0.00
3:53 pm 15:53 Sunny 48 8.9 21 -6.1 34 34 NW 13 20 30.23 1024 10 16 0.00 0.00
4:53 pm 16:53 Sunny 49 9.4 21 -6.1 33 33 NW 13 20 30.22 1024 10 16 0.00 0.00
5:53 pm 17:53 Sunny 48 8.9 20 -6.7 33 33 NE 6 9 30.22 1023 10 16 0.00 0.00
6:53 pm 18:53 Sunny 47 8.3 20 -6.7 34 34 NE 7 11 30.21 1023 10 16 0.00 0.00
7:53 pm 19:53 Sunny 41 5 21 -6.1 45 45 ENE 7 11 30.20 1023 10 16 0.00 0.00
8:53 pm 20:53 Clear 38 3.3 23 -5 55 55 ENE 14 22 30.21 1023 10 16 0.00 0.00
9:53 pm 21:53 Clear 34 1.1 23 -5 64 64 E 13 20 30.21 1023 10 16 0.00 0.00
10:53 pm 22:53 Clear 32 0 23 -5 69 69 E 16 26 30.19 1022 10 16 0.00 0.00
11:53 pm 23:53 Clear 30 -1.1 22 -5.6 72 72 ENE 16 26 30.16 1021 10 16 0.00 0.00

Powered by AerisWeather